H1 CPF  2 ESA 2023  1  6 10   6 01 galileo213
H2  1606903 7213    41861 2023  1  5 23 59 42 2023  1 10 23 59 42   900 1 1  0 0 0  1
H9
10 0 59951  21582.000000  0     -19281627.346      20237540.059      -9730377.198
10 0 59951  22482.000000  0     -18791591.287      19378844.379     -12139018.418
10 0 59951  23382.000000  0     -18275972.687      18296089.736     -14396633.705
10 0 59951  24282.000000  0     -17767930.020      16996925.182     -16475139.860
10 0 59951  25182.000000  0     -17299159.307      15495026.435     -18348684.624
10 0 59951  26082.000000  0     -16898867.674      13809723.934     -19993968.162
10 0 59951  26982.000000  0     -16592827.712      11965455.248     -21390532.545
10 0 59951  27882.000000  0     -16402542.327       9991058.939     -22521015.662
10 0 59951  28782.000000  0     -16344546.259       7918931.934     -23371366.475
10 0 59951  29682.000000  0     -16429866.169       5784076.722     -23931019.003
10 0 59951  30582.000000  0     -16663656.200       3623068.087     -24193022.956
10 0 59951  31482.000000  0     -17045020.389       1472971.620     -24154129.452
10 0 59951  32382.000000  0     -17567027.516       -629752.296     -23814830.828
10 0 59951  33282.000000  0     -18216917.875      -2650324.888     -23179354.077
10 0 59951  34182.000000  0     -18976495.534      -4556672.253     -22255608.024
10 0 59951  35082.000000  0     -19822693.780      -6320363.634     -21055084.894
10 0 59951  35982.000000  0     -20728296.090      -7917435.519     -19592717.482
10 0 59951  36882.000000  0     -21662790.058      -9329075.910     -17886693.657
10 0 59951  37782.000000  0     -22593327.565     -10542147.516     -15958230.454
10 0 59951  38682.000000  0     -23485761.147     -11549533.592     -13831310.531
10 0 59951  39582.000000  0     -24305724.080     -12350295.736     -11532384.192
10 0 59951  40482.000000  0     -25019720.370     -12949638.799      -9090040.654
10 0 59951  41382.000000  0     -25596190.442     -13358684.110      -6534652.615
10 0 59951  42282.000000  0     -26006519.111     -13594058.220      -3897998.527
10 0 59951  43182.000000  0     -26225954.198     -13677310.164      -1212867.286
10 0 59951  44082.000000  0     -26234406.920     -13634175.597       1487349.726
10 0 59951  44982.000000  0     -26017108.935     -13493710.990       4169074.128
10 0 59951  45882.000000  0     -25565105.353     -13287325.143       6798958.351
10 0 59951  46782.000000  0     -24875568.239     -13047738.493       9344300.513
10 0 59951  47682.000000  0     -23951920.707     -12807902.955      11773451.169
10 0 59951  48582.000000  0     -22803767.696     -12599916.272      14056206.823
10 0 59951  49482.000000  0     -21446635.549     -12453964.990      16164185.316
10 0 59951  50382.000000  0     -19901528.526     -12397329.284      18071178.393
10 0 59951  51282.000000  0     -18194316.100     -12453480.883      19753477.119
10 0 59951  52182.000000  0     -16354970.172     -12641302.423      21190166.112
10 0 59951  53082.000000  0     -14416676.007     -12974452.714      22363383.005
10 0 59951  53982.000000  0     -12414844.663     -13460897.876      23258539.985
10 0 59951  54882.000000  0     -10386057.674     -14102623.039      23864504.703
10 0 59951  55782.000000  0      -8366976.907     -14895533.716      24173738.385
10 0 59951  56682.000000  0      -6393253.552     -15829549.985      24182389.482
10 0 59951  57582.000000  0      -4498470.216     -16888890.627      23890341.707
10 0 59951  58482.000000  0      -2713149.071     -18052538.403      23301215.885
10 0 59951  59382.000000  0      -1063856.926     -19294872.048      22422325.574
10 0 59951  60282.000000  0        427564.901     -20586445.274      21264586.955
10 0 59951  61182.000000  0       1744621.943     -21894888.542      19842384.060
10 0 59951  62082.000000  0       2876619.830     -23185905.459      18173390.924
10 0 59951  62982.000000  0       3818935.309     -24424332.684      16278352.785
10 0 59951  63882.000000  0       4573096.616     -25575230.231      14180828.969
10 0 59951  64782.000000  0       5146670.752     -26604968.012      11906900.574
10 0 59951  65682.000000  0       5552961.237     -27482274.624       9484846.522
10 0 59951  66582.000000  0       5810525.874     -28179215.444       6944791.974
10 0 59951  67482.000000  0       5942529.723     -28672069.352       4318333.468
10 0 59951  68382.000000  0       5975953.638     -28942076.514       1638145.448
10 0 59951  69282.000000  0       5940683.312     -28976033.697      -1062426.859
10 0 59951  70182.000000  0       5868507.531     -28766718.387      -3749783.112
10 0 59951  71082.000000  0       5792057.192     -28313128.327      -6390486.801
10 0 59951  71982.000000  0       5743718.534     -27620528.912      -8951682.169
10 0 59951  72882.000000  0       5754554.835     -26700306.931     -11401503.837
10 0 59951  73782.000000  0       5853270.552     -25569635.223     -13709473.955
10 0 59951  74682.000000  0       6065250.550     -24250958.752     -15846881.873
10 0 59951  75582.000000  0       6411704.666     -22771318.251     -17787141.559
10 0 59951  76482.000000  0       6908944.567     -21161532.626     -19506122.315
10 0 59951  77382.000000  0       7567815.637     -19455265.761     -20982448.677
10 0 59951  78282.000000  0       8393301.789     -17688006.956     -22197765.814
10 0 59951  79182.000000  0       9384315.646     -15895996.911     -23136967.164
10 0 59951  80082.000000  0      10533680.705     -14115132.829     -23788381.567
10 0 59951  80982.000000  0      11828306.103     -12379886.857     -24143917.627
10 0 59951  81882.000000  0      13249548.578     -10722271.616     -24199163.591
10 0 59951  82782.000000  0      14773750.331      -9170885.070     -23953441.559
10 0 59951  83682.000000  0      16372936.062      -7750064.501     -23409815.415
10 0 59951  84582.000000  0      18015647.426      -6479175.916     -22575052.393
10 0 59951  85482.000000  0      19667888.888      -5372060.988     -21459538.776
10 0 59951  86382.000000  0      21294155.493      -4436658.678     -20077150.763
10 0 59952    882.000000  0      22858510.454      -3674813.283     -18445082.067
10 0 59952   1782.000000  0      24325678.936      -3082274.753     -16583630.352
10 0 59952   2682.000000  0      25662123.866      -2648891.202     -14515945.117
10 0 59952   3582.000000  0      26837070.148      -2358987.440     -12267740.092
10 0 59952   4482.000000  0      27823445.255      -2191917.598      -9866973.701
10 0 59952   5382.000000  0      28598706.772      -2122774.411      -7343501.503
10 0 59952   6282.000000  0      29145530.974      -2123232.858      -4728704.945
10 0 59952   7182.000000  0      29452340.884      -2162501.583      -2055101.022
10 0 59952   8082.000000  0      29513657.255      -2208352.177        644062.271
10 0 59952   8982.000000  0      29330261.490      -2228193.933       3335219.633
10 0 59952   9882.000000  0      28909165.398      -2190160.245       5984906.104
10 0 59952  10782.000000  0      28263388.751      -2064172.474       8560173.432
10 0 59952  11682.000000  0      27411551.638      -1822947.802      11028999.913
10 0 59952  12582.000000  0      26377294.412      -1442919.364      13360688.586
10 0 59952  13482.000000  0      25188543.450       -905039.711      15526248.807
10 0 59952  14382.000000  0      23876645.733       -195442.323      17498756.429
10 0 59952  15282.000000  0      22475399.390        694059.643      19253688.155
10 0 59952  16182.000000  0      21020010.557       1765653.078      20769225.918
10 0 59952  17082.000000  0      19546009.193       3015393.236      22026527.570
10 0 59952  17982.000000  0      18088157.766       4433264.854      23009960.565
10 0 59952  18882.000000  0      16679386.886       6003434.257      23707295.820
10 0 59952  19782.000000  0      15349791.147       7704684.683      24109859.389
10 0 59952  20682.000000  0      14125716.484       9511021.325      24212640.143
10 0 59952  21582.000000  0      13028967.527      11392427.305      24014352.132
10 0 59952  22482.000000  0      12076159.654      13315747.096      23517450.899
10 0 59952  23382.000000  0      11278235.937      15245669.910      22728103.504
10 0 59952  24282.000000  0      10640164.030      17145782.453      21656112.624
10 0 59952  25182.000000  0      10160822.424      18979658.265      20314795.592
10 0 59952  26082.000000  0       9833079.600      20711949.687      18720819.823
10 0 59952  26982.000000  0       9644063.562      22309448.412      16893996.559
10 0 59952  27882.000000  0       9575613.284      23742081.478      14857035.444
10 0 59952  28782.000000  0       9604897.919      24983811.608      12635262.856
10 0 59952  29682.000000  0       9705184.307      26013413.700      10256307.462
10 0 59952  30582.000000  0       9846728.699      26815103.164       7749756.837
10 0 59952  31482.000000  0       9997764.648      27378996.413       5146789.396
10 0 59952  32382.000000  0      10125556.009      27701389.044       2479786.244
10 0 59952  33282.000000  0      10197481.900      27784842.991       -218072.228
10 0 59952  34182.000000  0      10182119.442      27638079.919      -2913219.895
10 0 59952  35082.000000  0      10050290.187      27275684.200      -5572123.392
10 0 59952  35982.000000  0       9776037.215      26717624.842      -8161700.252
10 0 59952  36882.000000  0       9337502.118      25988611.407     -10649731.390
10 0 59952  37782.000000  0       8717674.201      25117304.190     -13005262.721
10 0 59952  38682.000000  0       7904988.269      24135403.507     -15198990.849
10 0 59952  39582.000000  0       6893752.136      23076646.732     -17203627.957
10 0 59952  40482.000000  0       5684390.359      21975744.604     -18994241.369
10 0 59952  41382.000000  0       4283496.464      20867290.195     -20548563.516
10 0 59952  42282.000000  0       2703691.961      19784674.792     -21847268.521
99